TimeEDT,TemperatureF,Dew PointF,Humidity,Sea Level PressureIn,VisibilityMPH,Wind Direction,Wind SpeedMPH,Gust SpeedMPH,PrecipitationIn,Events,Conditions,WindDirDegrees,DateUTC
12:54 AM,28.9,18.0,64,30.01,10.0,Calm,Calm,-,N/A,,Clear,0,2013-03-23 04:54:00
1:54 AM,28.0,18.0,66,30.01,10.0,SW,3.5,-,N/A,,Clear,220,2013-03-23 05:54:00
2:54 AM,27.0,18.0,69,30.00,10.0,Calm,Calm,-,N/A,,Clear,0,2013-03-23 06:54:00
3:54 AM,28.0,19.0,69,29.99,10.0,Calm,Calm,-,N/A,,Clear,0,2013-03-23 07:54:00
4:54 AM,28.9,19.0,67,29.99,10.0,WSW,4.6,-,N/A,,Partly Cloudy,250,2013-03-23 08:54:00
5:54 AM,30.0,19.0,64,29.98,10.0,WSW,4.6,-,N/A,,Scattered Clouds,240,2013-03-23 09:54:00
6:54 AM,28.0,19.0,69,29.99,10.0,West,5.8,-,N/A,,Clear,270,2013-03-23 10:54:00
7:54 AM,30.9,19.9,64,30.01,10.0,West,6.9,-,N/A,,Clear,260,2013-03-23 11:54:00
8:54 AM,35.1,21.9,59,30.02,10.0,West,8.1,-,N/A,,Clear,280,2013-03-23 12:54:00
9:54 AM,39.0,21.9,50,30.01,10.0,West,11.5,18.4,N/A,,Partly Cloudy,280,2013-03-23 13:54:00
10:54 AM,42.1,19.9,41,30.01,10.0,NW,18.4,28.8,N/A,,Mostly Cloudy,310,2013-03-23 14:54:00
11:54 AM,44.1,21.0,40,30.00,10.0,WNW,13.8,23.0,N/A,,Mostly Cloudy,300,2013-03-23 15:54:00
12:54 PM,45.0,21.0,39,29.98,10.0,West,16.1,25.3,N/A,,Mostly Cloudy,280,2013-03-23 16:54:00
1:54 PM,46.9,21.9,37,29.95,10.0,West,15.0,24.2,N/A,,Scattered Clouds,280,2013-03-23 17:54:00
2:54 PM,50.0,21.0,32,29.92,10.0,West,18.4,24.2,N/A,,Scattered Clouds,280,2013-03-23 18:54:00
3:54 PM,50.0,19.9,31,29.92,10.0,West,15.0,21.9,N/A,,Scattered Clouds,280,2013-03-23 19:54:00
4:54 PM,51.1,19.9,29,29.91,10.0,NW,9.2,-,N/A,,Scattered Clouds,310,2013-03-23 20:54:00
5:54 PM,50.0,19.0,29,29.91,10.0,WNW,10.4,19.6,N/A,,Partly Cloudy,300,2013-03-23 21:54:00
6:54 PM,48.9,19.9,32,29.92,10.0,NW,8.1,-,N/A,,Clear,320,2013-03-23 22:54:00
7:54 PM,46.9,19.0,33,29.93,10.0,NNW,9.2,-,N/A,,Partly Cloudy,330,2013-03-23 23:54:00
8:54 PM,45.0,19.0,36,29.96,10.0,NNW,4.6,-,N/A,,Partly Cloudy,330,2013-03-24 00:54:00
9:54 PM,42.1,21.0,43,29.98,10.0,North,10.4,-,N/A,,Scattered Clouds,360,2013-03-24 01:54:00
10:54 PM,39.9,21.0,47,29.99,10.0,NNW,5.8,-,N/A,,Scattered Clouds,340,2013-03-24 02:54:00
11:54 PM,37.9,19.9,48,29.99,10.0,North,8.1,-,N/A,,Mostly Cloudy,350,2013-03-24 03:54:00